Location: Unspecified
(44.4377°N, 88.0525°W)
Time: 11:57:39
(UTC-05:00)

Cosmos 1674 - Visible Passes

Search period start: 29 September 2016 00:00
Search period end: 09 October 2016 00:00
Orbit: 501 x 524 km, 82.5° (Epoch: 28 September)

Date Brightness Start Highest point End Pass type
(mag) Time Alt. Az. Time Alt. Az. Time Alt. Az.
29 Sep 2.6 19:59:28 10° N 20:03:21 69° E 20:06:20 16° SSE visible
30 Sep 2.8 19:43:29 10° N 19:47:19 54° ENE 19:51:07 10° SSE visible
30 Sep 5.9 21:21:12 10° WNW 21:22:27 11° W 21:23:42 10° WSW visible
01 Oct 3.1 19:27:33 10° N 19:31:17 43° ENE 19:34:59 10° SSE visible
01 Oct 5.8 21:04:28 10° NW 21:06:32 14° W 21:08:35 10° WSW visible
02 Oct 3.4 19:11:38 10° N 19:15:14 34° ENE 19:18:48 10° SE visible
02 Oct 5.6 20:48:01 10° NW 20:50:35 17° W 20:53:09 10° SW visible
03 Oct 3.6 18:55:45 10° NNE 18:59:10 28° ENE 19:02:32 10° SE visible
03 Oct 5.3 20:31:41 10° NW 20:34:38 21° W 20:37:35 10° SW visible
04 Oct 5.0 20:15:26 10° NNW 20:18:41 26° W 20:21:54 10° SSW visible
05 Oct 4.6 19:59:14 10° NNW 20:02:42 32° W 20:06:09 10° SSW visible
06 Oct 4.2 19:43:04 10° NNW 19:46:43 39° W 19:50:20 10° SSW visible
07 Oct 3.7 19:26:57 10° NNW 19:30:43 50° W 19:34:28 10° S visible
08 Oct 3.3 19:10:51 10° NNW 19:14:43 63° W 19:18:32 10° S visible
